SCP
0 0 0 0 0 0 0 0 0 0 0 0 0 0 0 0 0 0 0 0 0 0 0 0 0 0 0 0 0 0 0 0 0 0 0 0 0 0 0 0 0 0 0 0
0 0 0 0 0 0 0 0 0 0 0 0 0 0 0 0 0 0 0 0 0 0 0 0 0 0 0 0 0 0 0 0 0 0 0 0 0 0 0 0 0 0 0 0
0 0 0 0 0 0 0 0 0 0 0 0 0 0 0 0 0 0 0 0 0 0 0 0 0 0 0 0 0 0 0 0 0 0 0 0 0 0 0 0 0 0 0 0
0 0 0 0 0 0 0 0 0 0 0 0 0 0 0 0 0 0 0 0 0 0 0 0 0 0 0 0 0 0 0 0 0 0 0 0 0 0 0 0 0 0 0 0
0 0 0 0 0 0 0 0 0 0 0 0 0 0 0 0 0 0 0 0 0 0 0 0 0 0 0 0 0 0 0 0 0 0 0 0 0 0 0 0 0 0 0 0
0 0 0 0 0 0 0 0 0 0 0 0 0 0 0 0 0 0 0 0 0 0 0 0 0 0 0 0 0 0 0 0 0 0 0 0 0 0 0 0 0 0 0 0
0 0 0 0 0 0 0 0 0 0 0 0 0 0 0 0 0 0 0 0 0 0 0 0 0 0 0 0 0 0 0 0 0 0 0 0 0 0 0 0 0 0 0 0
0 0 0 0 0 0 0 0 0 0 0 0 0 0 0 0 0 0 0 0 0 0 0 0 0 0 0 0 0 0 0 0 0 0 0 0 0 0 0 0 0 0 0 0
0 0 0 0 0 0 0 0 0 0 0 0 0 0 0 0 0 0 0 0 0 0 0 0 0 0 0 0 0 0 0 0 0 0 0 0 0 0 0 0 0 0 0 0
0 0 0 0 0 0 0 0 0 0 0 0 0 0 0 0 0 0 0 0 0 0 0 0 0 0 0 0 0 0 0 0 0 0 0 0 0 0 0 0 0 0 0 0
0 0 0 0 0 0 0 0 0 0 0 0 0 0 0 0 0 0 0 0 0 0 0 0 0 0 0 0 0 0 0 0 0 0 0 0 0 0 0 0 0 0 0 0
0 0 0 0 0 0 0 0 0 0 0 0 0 0 0 0 0 0 0 0 0 0 0 0 0 0 0 0 0 0 0 0 0 0 0 0 0 0 0 0 0 0 0 0
0 0 0 0 0 0 0 0 0 0 0 0 0 0 0 0 0 0 0 0 0 0 0 0 0 0 0 0 0 0 0 0 0 0 0 0 0 0 0 0 0 0 0 0
0 0 0 0 0 0 0 0 0 0 0 0 0 0 0 0 0 0 0 0 0 0 0 0 0 0 0 0 0 0 0 0 0 0 0 0 0 0 0 0 0 0 0 0
0 0 0 0 0 0 0 -0 -0 0 0 0 0 0 0 0 0 0 0 0 0 0 0 0 0 0 0 0 0 0 0 0 0 0 0 0 0 0 0 0 0 0 0 0
0 0 0 0 0 0 0 -0 -0 -0 0 0 0 0 0 0 0 0 0 0 0 0 0 0 0 0 0 0 0 0 0 0 0 0 0 0 0 0 0 0 0 0 0 0
0 0 0 0 0 0 0 -0 -0 0 0 0 0 0 0 0 0 0 0 0 0 0 0 0 0 0 0 0 0 0 0 0 0 0 0 0 0 0 0 0 0 0 0 0
0 0 0 0 0 0 0 0 0 0 0 0 0 0 0 0 0 0 0 0 0 0 0 0 0 0 0 0 0 0 0 0 0 0 0 0 0 0 0 0 0 0 0 0
0 0 0 0 0 0 0 0 0 0 0 0 0 0 0 0 0 0 0 0 0 0 0 0 0 0 0 0 0 0 0 0 0 0 0 0 0 0 0 0 0 0 0 0
0 0 0 0 0 0 0 0 0 0 0 0 0 0 0 0 0 0 0 0 0 0 0 0 0 0 0 0 0 0 0 0 0 0 0 0 0 0 0 0 0 0 0 0
0 0 0 0 0 0 0 0 0 0 0 0 0 0 0 0 0 0 0 0 0 0 0 0 0 0 0 0 0 0 0 0 0 0 0 0 0 0 0 0 0 0 0 0
0 0 0 0 0 0 0 0 0 0 0 0 0 0 0 0 0 0 0 0 0 0 0 0 0 0 0 0 0 0 0 0 0 0 0 0 0 0 0 0 0 0 0 0
0 0 0 0 0 0 0 0 0 0 0 0 0 0 0 0 0 0 0 0 0 0 0 0 0 0 0 0 0 0 0 0 0 0 0 0 0 0 0 0 0 0 0 0
0 0 0 0 0 0 0 0 0 0 0 0 0 0 0 0 0 0 0 0 0 0 0 0 0 0 0 0 0 0 0 0 0 0 0 0 0 0 0 0 0 0 0 0
0 0 0 0 0 0 0 0 0 0 0 0 0 0 0 0 0 0 0 0 0 0 0 0 0 0 0 0 0 0 0 0 0 0 0 0 0 0 0 0 0 0 0 0
0 0 0 0 0 0 0 0 0 0 0 0 0 0 0 0 0 0 0 0 0 0 0 0 0 0 0 0 0 0 0 0 0 0 0 0 0 0 0 0 0 0 0 0
Wind_Speed
5 6 6 5 5 4 4 4 4 2 2 5 7 6 6 7 8 9 9 9 9 8 7 7 6 6 6 6 5 5 4 4 3 2 2 2 2 1 1 1 2 2 2 2
6 7 5 3 4 5 6 6 5 2 2 5 5 6 6 7 8 8 8 9 9 9 8 8 7 7 7 6 5 5 4 4 3 2 1 1 1 1 1 1 1 1 1 2
8 2 4 6 6 7 7 7 6 3 2 5 6 7 7 6 7 7 8 9 9 10 10 10 8 8 7 7 6 4 4 4 3 3 2 2 2 2 2 1 1 1 1 1
6 4 6 6 6 7 6 4 5 5 6 4 5 5 5 6 7 7 7 8 9 10 10 9 9 8 8 6 5 5 4 4 4 4 3 3 2 1 1 1 1 1 0 0
5 5 7 7 5 6 3 2 5 5 6 6 6 7 3 5 6 7 7 8 9 9 10 10 9 8 8 7 6 5 5 4 4 4 3 3 2 1 1 1 1 1 0 0
4 3 5 4 3 4 5 5 5 6 6 7 5 7 3 3 4 4 6 7 8 8 9 9 8 7 7 6 6 5 5 4 4 4 4 4 3 2 2 2 1 1 1 0
6 6 4 4 5 6 7 7 5 6 6 4 2 6 3 1 1 2 4 6 7 8 8 8 8 8 7 7 6 6 6 5 5 5 4 3 3 3 2 2 1 1 1 0
6 6 6 6 6 6 8 9 6 4 4 3 5 6 1 2 0 1 3 4 6 7 6 7 7 7 7 7 7 6 6 6 5 5 4 3 3 2 1 2 1 1 1 0
4 4 3 3 4 6 7 7 6 6 5 6 4 4 3 1 1 1 3 5 6 6 6 6 5 6 6 6 6 6 6 5 5 4 4 3 2 2 2 2 2 1 1 0
4 4 4 4 5 3 5 4 5 7 6 6 5 6 3 2 1 2 3 5 5 6 6 6 5 5 5 5 4 5 5 5 4 4 3 2 2 2 2 2 2 1 1 1
5 6 4 5 6 6 6 7 6 6 6 6 5 2 2 1 1 2 2 4 5 5 5 5 5 5 4 4 4 4 4 4 4 3 3 3 2 2 2 2 1 1 1 1
4 6 6 5 2 3 6 7 8 7 7 7 7 1 4 1 1 1 2 3 4 5 5 5 5 5 5 4 4 3 3 3 2 2 3 3 2 2 2 2 2 2 1 1
4 6 6 5 6 5 5 5 7 8 7 8 8 3 5 2 1 1 1 2 3 4 5 5 5 4 4 4 3 3 2 2 2 2 2 2 3 3 3 3 2 2 2 1
4 6 7 6 3 3 5 6 7 9 9 9 9 6 2 1 1 1 1 2 2 4 5 4 4 4 3 3 2 2 2 2 2 2 2 2 2 2 2 2 2 2 1 1
4 6 6 6 4 4 6 7 7 10 10 10 8 7 4 3 2 2 1 2 2 3 4 4 4 3 3 3 2 2 2 2 2 2 2 2 2 1 1 2 2 2 1 1
3 5 5 5 4 5 7 6 7 8 8 9 9 7 3 2 1 1 1 2 3 2 3 4 4 4 4 3 3 3 3 2 3 3 2 2 1 1 1 1 1 1 1 1
4 5 6 5 3 6 7 6 6 6 5 6 8 5 2 2 2 2 3 2 2 2 2 3 4 4 4 4 4 3 3 3 3 3 2 2 2 2 2 1 1 2 2 1
5 5 4 4 5 8 1 2 2 4 3 4 4 3 3 3 3 2 2 2 2 2 3 3 3 3 3 3 3 3 3 3 3 3 3 2 3 2 2 2 2 2 1 1
4 5 4 4 6 6 2 1 2 4 4 2 3 3 4 3 3 1 1 2 3 3 3 2 2 3 3 3 3 3 3 3 3 3 3 3 3 3 3 2 2 2 2 2
3 5 5 5 6 5 1 2 1 4 4 1 2 3 3 3 4 1 2 2 2 2 1 1 1 1 2 2 2 3 3 3 3 3 3 3 3 3 3 3 2 2 2 2
4 4 6 7 7 4 3 1 2 5 2 2 2 2 2 3 4 3 2 2 2 1 1 0 0 0 1 2 3 3 3 3 2 2 2 2 2 3 3 2 3 3 2 2
5 4 5 6 7 4 3 2 2 3 4 2 2 2 3 3 3 2 1 1 1 1 1 0 0 0 0 2 3 3 3 2 2 2 2 2 2 2 2 2 3 3 3 3
5 4 3 4 2 3 2 1 2 4 3 3 3 3 3 3 3 2 2 1 1 0 1 1 1 1 1 1 2 2 2 2 3 3 3 2 2 2 2 3 3 3 3 2
3 2 4 5 4 2 2 3 3 3 4 3 3 3 3 3 2 2 2 1 1 1 1 1 1 1 1 1 1 2 1 2 3 3 2 2 2 2 2 2 3 3 3 3
3 4 5 6 4 3 4 4 4 3 3 3 3 3 2 2 2 2 1 1 1 1 1 1 1 1 1 1 1 1 1 2 3 2 2 2 1 2 2 1 1 2 2 2
6 6 6 5 3 4 4 3 4 4 4 3 2 2 2 2 1 1 1 1 1 1 1 1 1 1 1 1 1 1 1 2 2 2 2 1 1 1 1 1 1 2 1 2
Wind_Direction
191 212 216 218 228 255 249 238 239 241 216 229 231 231 216 195 206 207 199 195 190 185 173 169 169 168 165 161 159 148 149 141 139 139 144 131 124 110 104 92 88 81 61 39
199 218 223 209 202 218 232 238 238 218 204 245 248 247 225 205 211 212 207 199 192 184 178 172 172 173 172 166 163 160 161 151 151 143 144 149 140 136 99 99 92 76 62 52
221 210 192 199 208 222 233 243 241 238 229 231 253 235 212 200 203 206 211 205 196 191 189 179 178 178 177 176 169 168 169 161 161 164 163 154 146 156 144 145 123 80 60 54
224 201 199 213 224 234 234 233 232 231 243 238 239 263 207 194 193 201 204 202 199 194 195 186 183 182 182 180 174 177 176 171 167 175 181 182 188 179 164 164 135 136 109 61
209 203 214 226 229 233 238 192 215 236 254 256 231 253 209 184 210 210 206 200 199 195 195 190 188 185 182 179 176 178 174 172 173 182 181 205 198 183 169 170 158 168 131 217
225 212 231 231 217 211 180 186 197 221 242 248 239 249 244 194 227 215 201 198 198 195 193 193 186 181 178 172 170 175 178 174 175 182 184 197 190 188 174 173 160 177 155 260
207 196 190 202 191 186 211 223 224 218 219 236 189 244 250 35 281 242 212 196 193 192 189 187 185 182 177 175 174 178 179 178 179 184 188 191 189 195 186 176 185 202 188 171
218 202 185 203 224 215 215 235 253 265 260 245 206 234 162 70 48 234 214 190 185 185 184 185 185 180 174 175 174 178 181 181 183 189 192 190 182 195 186 191 193 198 207 207
231 207 158 199 226 232 215 227 261 277 276 265 225 207 185 159 154 170 177 173 178 179 177 174 171 169 170 172 172 174 177 179 181 187 185 180 180 184 186 197 200 204 218 226
256 237 186 173 189 200 254 223 218 239 256 255 244 236 224 192 210 173 176 176 173 173 169 167 162 157 158 155 161 167 171 175 179 180 176 171 176 179 190 194 198 200 205 214
249 238 190 193 216 212 196 209 228 239 256 269 265 222 69 219 191 203 189 177 169 167 162 156 148 144 139 141 148 154 165 171 177 181 182 182 179 182 189 198 194 216 210 203
232 251 233 215 188 271 236 234 232 244 240 248 269 263 86 87 80 179 180 165 164 161 159 154 148 147 145 143 141 148 156 164 169 183 191 189 189 192 198 200 199 206 216 215
206 240 238 198 184 190 219 227 239 253 257 248 251 226 108 111 99 126 163 153 164 162 160 159 155 155 154 150 148 148 163 177 176 182 191 194 204 209 209 210 205 204 205 210
248 243 254 264 300 226 231 227 230 239 247 251 251 262 224 245 303 300 195 178 176 174 171 169 166 166 164 166 161 165 167 179 189 188 192 202 214 224 225 214 199 205 204 204
252 250 253 274 276 246 249 248 233 239 252 260 266 267 278 297 288 296 260 180 178 184 183 183 185 184 181 183 177 176 177 184 192 192 203 215 218 215 206 196 192 186 204 216
247 254 250 247 237 240 249 251 240 238 249 252 258 264 306 317 288 282 261 207 201 200 207 203 202 203 204 201 199 197 197 202 204 200 202 203 192 174 187 201 191 179 200 217
221 242 250 247 240 245 242 245 240 229 235 244 251 263 296 287 275 278 274 236 221 224 229 230 222 218 213 213 208 206 206 206 211 204 192 185 184 184 192 190 178 184 199 208
230 233 249 262 245 244 70 58 235 221 233 253 268 292 287 286 283 298 299 270 252 246 241 238 238 231 229 218 211 209 210 206 212 205 194 184 186 194 197 200 197 200 201 212
239 230 235 244 253 260 209 194 223 233 238 265 260 280 303 305 254 217 46 317 286 262 255 250 249 238 226 218 213 210 212 206 210 211 210 199 198 201 202 202 203 209 208 213
199 230 238 235 251 255 40 68 308 245 227 73 296 287 300 289 260 290 6 322 314 312 297 273 227 231 222 212 205 206 206 207 213 213 217 212 207 210 214 209 200 205 207 212
189 209 229 240 248 256 39 60 208 235 1 30 305 291 275 272 305 334 340 332 345 344 319 322 250 249 223 201 194 198 201 208 207 207 212 205 206 209 215 213 201 197 197 210
226 222 223 232 240 240 83 144 221 339 7 339 307 291 281 297 326 323 315 326 357 340 312 306 164 92 175 194 199 200 200 200 196 196 198 199 202 209 206 200 198 200 191 205
235 259 264 250 270 38 118 193 332 332 320 325 319 317 303 301 315 309 277 258 236 271 256 246 170 139 146 179 210 203 197 203 199 194 197 200 198 204 201 199 194 198 200 211
201 234 242 246 244 270 260 266 292 308 312 318 310 302 279 285 295 292 271 252 258 266 235 223 197 188 158 176 206 217 204 203 204 198 197 200 198 198 202 205 207 207 209 218
240 213 236 248 254 263 251 262 283 296 301 307 306 291 275 277 278 290 286 274 275 268 252 225 207 217 223 187 189 207 206 200 193 191 191 199 197 188 190 193 224 235 239 263
221 228 243 260 256 257 268 278 277 275 275 277 281 284 274 276 271 276 278 288 266 242 214 233 238 231 220 193 186 191 194 203 194 186 183 189 187 191 183 178 148 43 350 351